Weather History for KWDG - December, 2012

Change the Weather History Date:

Saturday, December 8, 2012

  Actual Average Record
Temperature  
Mean Temperature 42 °F -  
Max Temperature 48 °F - - ()
Min Temperature 35 °F - - ()
Degree Days  
Heating Degree Days 24    
Moisture  
Dew Point 40 °F    
Average Humidity 86    
Maximum Humidity 93    
Minimum Humidity 76    
Precipitation  
Precipitation 0.00 in - - ()
Sea Level Pressure  
Sea Level Pressure 29.89 in    
Wind  
Wind Speed 8 mph (North)    
Max Wind Speed 14 mph    
Max Gust Speed -    
Visibility 6 miles    
Events      
T = Trace of Precipitation, MM = Missing Value Source: NWS Daily Summary

Daily Weather History Graph

Daily Weather History Graph

Search for Another Location

Airport or City:

Trip Planner

Search our weather history database for the weather conditions in past years. The results will help you decide how hot, cold, wet, or windy it might be!

Date:

Astronomy

Dec. 08, 2012 Rise Set
Actual Time 7:30 AM CST 5:15 PM CST
Civil Twilight 7:02 AM CST 5:44 PM CST
Nautical Twilight 6:30 AM CST 6:16 PM CST
Astronomical Twilight 5:58 AM CST 6:47 PM CST
Moon 2:04 AM CST (12/8) 1:40 PM CST (12/8)
Length of Visible Light 10h 42m
Length of Day
9h 45m
Waning Crescent, 28% of the Moon is Illuminated
Dec 8
Waning Crescent
Dec 13
New
Dec 19
First Quarter
Dec 28
Full
Jan 4
Last Quarter

Hourly Weather History & Observations

Time (CST) Temp. Windchill Dew Point Humidity Pressure Visibility Wind Dir Wind Speed Gust Speed Precip Events Conditions
12:15 AM 42.8 °F 38.0 °F 41.0 °F 93% 29.93 in 5.0 mi NNW 8.1 mph - N/A   Overcast
12:35 AM 44.6 °F 40.2 °F 42.8 °F 93% 29.93 in 5.0 mi NNW 8.1 mph - N/A   Overcast
12:55 AM 44.6 °F 38.8 °F 41.0 °F 87% 29.93 in 5.0 mi NNW 11.5 mph - N/A   Overcast
1:15 AM 42.8 °F 37.0 °F 41.0 °F 93% 29.93 in 7.0 mi NNW 10.4 mph - N/A   Overcast
1:35 AM 42.8 °F 37.5 °F 37.4 °F 81% 29.94 in 7.0 mi NNW 9.2 mph - N/A   Mostly Cloudy
1:55 AM 41.0 °F 34.3 °F 37.4 °F 87% 29.94 in 7.0 mi North 11.5 mph - N/A   Mostly Cloudy
2:15 AM 41.0 °F 34.7 °F 37.4 °F 87% 29.94 in 10.0 mi North 10.4 mph - N/A   Scattered Clouds
2:35 AM 41.0 °F 34.7 °F 35.6 °F 81% 29.94 in 10.0 mi NNW 10.4 mph - N/A   Mostly Cloudy
2:55 AM 41.0 °F 35.2 °F 35.6 °F 81% 29.94 in 10.0 mi North 9.2 mph - N/A   Mostly Cloudy
3:15 AM 41.0 °F 35.2 °F 35.6 °F 81% 29.94 in 7.0 mi NNW 9.2 mph - N/A   Mostly Cloudy
3:35 AM 41.0 °F 33.5 °F 35.6 °F 81% 29.94 in 10.0 mi North 13.8 mph - N/A   Mostly Cloudy
3:55 AM 41.0 °F 35.8 °F 35.6 °F 81% 29.94 in 10.0 mi North 8.1 mph - N/A   Mostly Cloudy
4:15 AM 37.4 °F 31.4 °F 33.8 °F 87% 29.94 in 7.0 mi North 8.1 mph - N/A   Scattered Clouds
4:35 AM 37.4 °F 30.3 °F 33.8 °F 87% 29.94 in 7.0 mi North 10.4 mph - N/A   Clear
4:55 AM 35.6 °F 28.0 °F 33.8 °F 93% 29.94 in 7.0 mi North 10.4 mph - N/A   Clear
6:50 AM 37.4 °F 29.8 °F 35.6 °F 93% 29.94 in 7.0 mi North 11.5 mph - N/A   Mostly Cloudy
7:50 AM 37.4 °F 30.3 °F 35.6 °F 93% 29.95 in 7.0 mi North 10.4 mph - N/A   Overcast
8:50 AM 39.2 °F 32.5 °F 35.6 °F 87% 29.95 in 5.0 mi North 10.4 mph - N/A   Overcast
9:50 AM 42.8 °F 37.5 °F 37.4 °F 81% 29.95 in 5.0 mi North 9.2 mph - N/A   Overcast
10:28 AM 42.8 °F 37.0 °F 37.4 °F 81% 29.94 in 5.0 mi North 10.4 mph - N/A   Overcast
10:50 AM 42.8 °F 37.5 °F 39.2 °F 87% 29.94 in 5.0 mi NNE 9.2 mph - N/A   Overcast
11:50 AM 44.6 °F 40.7 °F 39.2 °F 81% 29.92 in 5.0 mi North 6.9 mph - N/A   Mostly Cloudy
12:55 PM 46.4 °F 44.3 °F 39.2 °F 76% 29.87 in 5.0 mi NE 4.6 mph - N/A   Overcast
1:55 PM 48.2 °F - 41.0 °F 76% 29.85 in 5.0 mi Calm Calm - N/A   Overcast
3:55 PM 48.2 °F - 42.8 °F 82% 29.83 in 4.0 mi Calm Calm - N/A   Overcast
6:50 PM 48.2 °F - 42.8 °F 82% 29.82 in 7.0 mi WNW 5.8 mph - N/A   Overcast
7:55 PM 48.2 °F - 42.8 °F 82% 29.81 in 7.0 mi SE 8.1 mph - N/A   Overcast
8:15 PM 46.4 °F 45.2 °F 42.8 °F 87% 29.80 in 7.0 mi ESE 3.5 mph - N/A   Overcast
8:35 PM 46.4 °F - 42.8 °F 87% 29.80 in 7.0 mi Calm Calm - N/A   Overcast
8:50 PM 48.2 °F - 42.8 °F 82% 29.82 in 7.0 mi Calm Calm - N/A   Overcast
9:15 PM 46.4 °F 44.3 °F 42.8 °F 87% 29.79 in 7.0 mi East 4.6 mph - N/A   Overcast
9:55 PM 46.4 °F 43.5 °F 42.8 °F 87% 29.79 in 7.0 mi ENE 5.8 mph - N/A   Overcast
10:35 PM 48.2 °F - 44.6 °F 87% 29.80 in 5.0 mi ENE 5.8 mph - N/A   Overcast
10:55 PM 48.2 °F - 44.6 °F 87% 29.79 in 5.0 mi NE 3.5 mph - N/A   Overcast
11:15 PM 48.2 °F - 44.6 °F 87% 29.79 in 4.0 mi ENE 5.8 mph - N/A   Overcast
11:35 PM 48.2 °F - 44.6 °F 87% 29.78 in 4.0 mi NE 9.2 mph - N/A   Mostly Cloudy
11:55 PM 46.4 °F 42.4 °F 44.6 °F 93% 29.78 in 4.0 mi NE 8.1 mph - N/A   Mostly Cloudy